Regional Weather Roundup
Issued by NWS

Home | Current Version | Previous Version | Graphics & Text | Print | Product List | Glossary On
Versions: 1 2 3 4 5 6 7 8 9 10 11 12 13 14 15 16 17 18 19 20 21 22 23 24 25 26 27 28 29 30 31 32 33 34 35 36 37 38 39 40 41 42 43 44 45 46 47 48 49 50
000
ASUS43 KFSD 302202
RWRSD

WEATHER ROUNDUP FOR SOUTH DAKOTA
NATIONAL WEATHER SERVICE SIOUX FALLS SD
500 PM CDT WED JUL 30 2014

NOTE: "FAIR" INDICATES FEW OR NO CLOUDS BELOW 12,000 FEET WITH NO
SIGNIFICANT WEATHER AND/OR OBSTRUCTIONS TO VISIBILITY.


SDZ001>005-009-010-012>017-302300-
NORTHWEST AND NORTH CENTRAL SOUTH DAKOTA

CITY           SKY/WX    TMP DP  RH WIND       PRES   REMARKS
BUFFALO          N/A     83  50  31 N13       30.11F
FAITH            N/A     85  52  32 N10       30.12S
MOBRIDGE       MOSUNNY   82  56  40 CALM      30.08F
$$

SDZ012>016-024>037-041>051-057-063-072>074-302300-
SOUTHWEST AND SOUTH CENTRAL SOUTH DAKOTA

CITY           SKY/WX    TMP DP  RH WIND       PRES   REMARKS
RAPID CTY ARPT MOSUNNY   84  44  24 N13       30.16F
PIERRE         SUNNY     87  52  29 SE10      30.06F
CUSTER         MOSUNNY   73  49  42 E10       30.30S
ELLSWORTH AFB  SUNNY     85  45  24 N14G22    30.16F
PHILIP         MOSUNNY   89  50  26 W10G20    30.08F
PINE RIDGE     PTSUNNY   83  48  29 VRB3      30.18F
WINNER         FAIR      88  49  25 CALM      30.10F
$$

SDZ004>011-016>023-039-040-302300-
NORTHEAST SOUTH DAKOTA

CITY           SKY/WX    TMP DP  RH WIND       PRES   REMARKS
ABERDEEN       SUNNY     80  56  43 NE12      30.10F
WATERTOWN      MOSUNNY   78  53  41 N9        30.12F
SISSETON         N/A     80  54  40 MISG      30.09F
$$

SDZ017-020-022-023-036>040-048>070-302300-
SOUTHEAST SOUTH DAKOTA

CITY           SKY/WX    TMP DP  RH WIND       PRES   REMARKS
SIOUX FALLS    MOSUNNY   79  54  41 NW6       30.12S
HURON          MOSUNNY   81  54  39 VRB5      30.10F
CHAMBERLAIN    MOSUNNY   83  55  37 SE5       30.10S
MITCHELL       SUNNY     82  54  37 CALM      30.11F
YANKTON        SUNNY     77  54  44 SE7       30.12S
$$

ABBREVIATIONS USED IN REMARKS
   TC - TEMPERATURE IN CELSIUS
  WCI - WIND CHILL INDEX
   HX - HEAT INDEX
  VSB - VISIBILITY




USA.gov is the U.S. government's official web portal to all federal, state and local government web resources and services.